Kuiper-00112

operational
NORAD ID: 65150 Int'l Des: 2025-171 Owner: KUIP Country: US Constellation: kuiper
LEOCIRCULAR

About Kuiper-00112

Description loading...

Live Position

Loading 3D Globe...

Upcoming Passes

Altitude History

Altitude vs Time

uPlot chart will show altitude changes over time

Two-Line Element Set

1 65150U 25171U 26102.14113727 -.00001849 00000-0 -21360-3 0 9999
2 65150 51.9029 7.6871 0000916 116.6501 243.4555 14.79929014 37879
Epoch: Apr 12, 2026 • Age: 17 hours

Current Status

Altitude 629.4 km
Velocity 7.55 km/s
Sub-Earth Point 21.03°N, 21.85°E
Launch Date Aug 11, 2025
Age 0.6 years
Type internet

Technical Details

Classification Payload
Mass 490.00 kg
Dry Mass 490.00 kg
Total Mass 490.00 kg
Length 1.80 m
Diameter 0.70 m
Span 5.00 m
Shape Box + 2 pan
Manufacturer KUIP
Bus Type Kuiper
Phase Status In Orbit
Owner/State KUIP/US

Large Constellations

Loading constellations...